CMI896 PGUM-VHHX

Flight info

Callsign CMI896
Flight time 4h 30m
Altitude 32000
Route UNZ M501 LIMLE/N0470F340 M501 NOMAN DCT CH
Aircraft B722/M-SDFHIW/C

Departure

Time 2026-04-26 13:06
Airport Antonio B. Won Pat International Airport (PGUM)

Arrival

Time 2026-04-26 17:36
Airport Hong Kong International Airport Kai Tak (VHHX)
Time Latitude Longitude Altitude Speed Heading
2026-04-26 12:40 13.48886 144.80136 299 ft 0 kts 336°
2026-04-26 12:53 13.48876 144.80140 303 ft 4 kts 339°
2026-04-26 12:53 13.48852 144.80152 302 ft 4 kts 330°
2026-04-26 12:53 13.48830 144.80167 298 ft 4 kts 324°
2026-04-26 12:53 13.48817 144.80177 300 ft 0 kts 323°
2026-04-26 12:59 13.48823 144.80171 298 ft 2 kts 301°
2026-04-26 13:00 13.48821 144.80155 299 ft 4 kts 240°
2026-04-26 13:00 13.48799 144.80114 299 ft 10 kts 245°
2026-04-26 13:00 13.48757 144.80021 297 ft 18 kts 244°
2026-04-26 13:00 13.48697 144.79890 300 ft 23 kts 246°
2026-04-26 13:01 13.48623 144.79724 299 ft 28 kts 244°
2026-04-26 13:01 13.48532 144.79531 295 ft 32 kts 245°
2026-04-26 13:01 13.48436 144.79317 295 ft 33 kts 244°
2026-04-26 13:01 13.48334 144.79099 292 ft 34 kts 246°
2026-04-26 13:02 13.48235 144.78874 292 ft 35 kts 243°
2026-04-26 13:02 13.48126 144.78645 293 ft 36 kts 245°
2026-04-26 13:02 13.48019 144.78407 286 ft 37 kts 245°
2026-04-26 13:02 13.47927 144.78206 285 ft 17 kts 245°
2026-04-26 13:03 13.47851 144.78129 282 ft 16 kts 175°
2026-04-26 13:03 13.47797 144.78186 273 ft 9 kts 68°
2026-04-26 13:03 13.47806 144.78206 273 ft 0 kts 65°
2026-04-26 13:04 13.47815 144.78226 273 ft 18 kts 65°
2026-04-26 13:04 13.47944 144.78510 276 ft 68 kts 64°
2026-04-26 13:05 13.48209 144.79090 284 ft 109 kts 65°
2026-04-26 13:05 13.48575 144.79901 295 ft 138 kts 65°
2026-04-26 13:05 13.48995 144.80819 470 ft 147 kts 66°
2026-04-26 13:05 13.49434 144.81796 775 ft 153 kts 66°
2026-04-26 13:06 13.49858 144.82803 1202 ft 149 kts 66°
2026-04-26 13:06 13.50255 144.83789 1620 ft 152 kts 67°
2026-04-26 13:06 13.50936 144.84582 2088 ft 153 kts 30°
2026-04-26 13:06 13.52040 144.84740 2359 ft 171 kts 358°
2026-04-26 13:07 13.53179 144.84301 2731 ft 182 kts 330°
2026-04-26 13:07 13.54042 144.83290 2970 ft 196 kts 303°
2026-04-26 13:07 13.54444 144.81946 3340 ft 200 kts 279°
2026-04-26 13:07 13.54502 144.80508 3656 ft 207 kts 274°
2026-04-26 13:08 13.54545 144.79023 4007 ft 209 kts 272°
2026-04-26 13:08 13.54566 144.77512 4273 ft 217 kts 272°
2026-04-26 13:08 13.54594 144.75901 4501 ft 237 kts 272°
2026-04-26 13:08 13.54634 144.74119 4723 ft 262 kts 272°
2026-04-26 13:09 13.54689 144.72121 4951 ft 298 kts 272°
2026-04-26 13:09 13.54761 144.69871 5329 ft 328 kts 272°
2026-04-26 13:09 13.54847 144.67450 5968 ft 349 kts 272°
2026-04-26 13:09 13.54943 144.64941 6645 ft 354 kts 272°
2026-04-26 13:10 13.55051 144.62400 7290 ft 358 kts 272°
2026-04-26 13:10 13.55176 144.59861 8150 ft 353 kts 272°
2026-04-26 13:10 13.55326 144.57360 9073 ft 347 kts 272°
2026-04-26 13:10 13.55485 144.54905 9997 ft 341 kts 272°
2026-04-26 13:11 13.55723 144.52495 10736 ft 340 kts 276°
2026-04-26 13:11 13.56105 144.50074 11194 ft 348 kts 278°
2026-04-26 13:11 13.56600 144.47603 11623 ft 357 kts 281°
2026-04-26 13:11 13.57208 144.45096 11996 ft 367 kts 283°
2026-04-26 13:12 13.57928 144.42544 12410 ft 374 kts 285°
2026-04-26 13:12 13.58719 144.39986 13018 ft 376 kts 287°
2026-04-26 13:12 13.59595 144.37443 13588 ft 379 kts 288°
2026-04-26 13:12 13.60543 144.34913 14124 ft 380 kts 290°
2026-04-26 13:13 13.61517 144.32382 14592 ft 382 kts 288°
2026-04-26 13:13 13.62020 144.29714 15039 ft 382 kts 273°
2026-04-26 13:13 13.62378 144.27000 15484 ft 385 kts 282°
2026-04-26 13:13 13.63147 144.24359 15962 ft 387 kts 290°
2026-04-26 13:14 13.64239 144.21820 16426 ft 389 kts 294°
2026-04-26 13:14 13.65277 144.19243 16881 ft 391 kts 292°
2026-04-26 13:14 13.66296 144.16643 17369 ft 393 kts 292°
2026-04-26 13:14 13.67277 144.14017 17811 ft 395 kts 291°
2026-04-26 13:15 13.67783 144.12620 18066 ft 396 kts 291°
2026-04-26 13:15 13.68754 144.09965 18465 ft 398 kts 292°
2026-04-26 13:15 13.69738 144.07293 18824 ft 401 kts 292°
2026-04-26 13:15 13.70712 144.04596 19191 ft 403 kts 291°
2026-04-26 13:16 13.71689 144.01885 19540 ft 406 kts 292°
2026-04-26 13:16 13.72681 143.99155 19905 ft 408 kts 292°
2026-04-26 13:16 13.73675 143.96455 20255 ft 410 kts 292°
2026-04-26 13:16 13.74688 143.93702 20610 ft 413 kts 292°
2026-04-26 13:17 13.76721 143.88137 21299 ft 418 kts 292°
2026-04-26 13:17 13.77741 143.85327 21632 ft 421 kts 292°
2026-04-26 13:18 13.79799 143.79660 22309 ft 426 kts 292°
2026-04-26 13:18 13.80835 143.76796 22635 ft 428 kts 292°
2026-04-26 13:18 13.82927 143.71021 23286 ft 433 kts 292°
2026-04-26 13:19 13.83984 143.68112 23579 ft 436 kts 292°
2026-04-26 13:19 13.85040 143.65189 23878 ft 437 kts 292°
2026-04-26 13:19 13.86099 143.62255 24180 ft 438 kts 292°
2026-04-26 13:19 13.87157 143.59316 24466 ft 439 kts 292°
2026-04-26 13:20 13.88212 143.56363 24763 ft 440 kts 292°
2026-04-26 13:20 13.89280 143.53410 25048 ft 441 kts 293°
2026-04-26 13:20 13.90355 143.50451 25331 ft 442 kts 292°
2026-04-26 13:20 13.91433 143.47481 25617 ft 443 kts 293°
2026-04-26 13:21 13.92513 143.44507 25879 ft 445 kts 292°
2026-04-26 13:21 13.93221 143.42525 26048 ft 446 kts 292°
2026-04-26 13:21 13.94659 143.38517 26404 ft 447 kts 292°
2026-04-26 13:21 13.95746 143.35510 26661 ft 448 kts 292°
2026-04-26 13:22 13.96842 143.32501 26910 ft 450 kts 293°
2026-04-26 13:22 13.97947 143.29485 27148 ft 451 kts 293°
2026-04-26 13:22 13.99045 143.26451 27387 ft 453 kts 292°
2026-04-26 13:22 14.00125 143.23401 27630 ft 454 kts 292°
2026-04-26 13:23 14.01216 143.20350 27844 ft 455 kts 292°
2026-04-26 13:23 14.02320 143.17292 28070 ft 456 kts 292°
2026-04-26 13:23 14.03436 143.14227 28284 ft 458 kts 293°
2026-04-26 13:23 14.04548 143.11155 28491 ft 459 kts 291°
2026-04-26 13:24 14.05342 143.07959 28652 ft 463 kts 284°
2026-04-26 13:24 14.06189 143.04812 28840 ft 461 kts 293°
2026-04-26 13:24 14.07467 143.01792 29005 ft 461 kts 296°
2026-04-26 13:24 14.08699 142.98736 29188 ft 463 kts 294°
2026-04-26 13:25 14.09895 142.95652 29387 ft 464 kts 294°
2026-04-26 13:25 14.11092 142.92559 29565 ft 465 kts 294°
2026-04-26 13:25 14.12268 142.89452 29742 ft 467 kts 293°
2026-04-26 13:25 14.13412 142.86318 29926 ft 468 kts 293°
2026-04-26 13:26 14.14561 142.83184 30094 ft 468 kts 293°
2026-04-26 13:26 14.15707 142.80040 30229 ft 470 kts 293°
2026-04-26 13:26 14.16859 142.76886 30372 ft 470 kts 293°
2026-04-26 13:26 14.17986 142.73718 30499 ft 472 kts 292°
2026-04-26 13:27 14.19092 142.70535 30625 ft 472 kts 292°
2026-04-26 13:27 14.20213 142.67344 30732 ft 473 kts 292°
2026-04-26 13:27 14.21340 142.64157 30837 ft 474 kts 292°
2026-04-26 13:27 14.22475 142.60967 30941 ft 475 kts 292°
2026-04-26 13:28 14.23620 142.57774 31041 ft 475 kts 292°
2026-04-26 13:28 14.24774 142.54575 31142 ft 476 kts 293°
2026-04-26 13:28 14.25930 142.51376 31235 ft 477 kts 293°
2026-04-26 13:29 14.28244 142.44959 31417 ft 479 kts 292°
2026-04-26 13:29 14.30487 142.38510 31721 ft 477 kts 292°
2026-04-26 13:30 14.32764 142.32063 31893 ft 479 kts 292°
2026-04-26 13:30 14.35077 142.25603 31958 ft 483 kts 292°
2026-04-26 13:31 14.37427 142.19126 31964 ft 488 kts 292°
2026-04-26 13:31 14.39740 142.12511 31968 ft 493 kts 292°
2026-04-26 13:32 14.42036 142.05939 31966 ft 472 kts 292°
2026-04-26 13:32 14.44271 141.99601 31960 ft 473 kts 292°
2026-04-26 13:33 14.46553 141.93213 31964 ft 475 kts 292°
2026-04-26 13:33 14.48850 141.86824 31973 ft 475 kts 292°
2026-04-26 13:34 14.51083 141.80404 31967 ft 475 kts 292°
2026-04-26 13:34 14.53332 141.73993 31967 ft 475 kts 292°
2026-04-26 13:35 14.55606 141.67590 31969 ft 475 kts 292°
2026-04-26 13:35 14.57876 141.61181 31973 ft 476 kts 292°
2026-04-26 13:36 14.60109 141.54746 31975 ft 476 kts 291°
2026-04-26 13:36 14.62333 141.48308 31963 ft 476 kts 292°
2026-04-26 13:37 14.64603 141.41888 31971 ft 476 kts 292°
2026-04-26 13:37 14.66872 141.35466 31968 ft 477 kts 291°
2026-04-26 13:38 14.69085 141.29010 31968 ft 477 kts 291°
2026-04-26 13:38 14.71307 141.22613 31973 ft 476 kts 292°
2026-04-26 13:39 14.73568 141.16180 31974 ft 476 kts 292°
2026-04-26 13:39 14.75797 141.09734 31977 ft 476 kts 291°
2026-04-26 13:40 14.78041 141.03295 31979 ft 476 kts 292°
2026-04-26 13:40 14.80263 140.96846 31980 ft 476 kts 291°
2026-04-26 13:41 14.82497 140.90399 31978 ft 477 kts 291°
2026-04-26 13:41 14.84697 140.83936 31982 ft 477 kts 289°
2026-04-26 13:42 14.86198 140.77244 31975 ft 479 kts 283°
2026-04-26 13:42 14.87286 140.70529 31971 ft 469 kts 283°
2026-04-26 13:43 14.88668 140.63933 31976 ft 470 kts 284°
2026-04-26 13:43 14.89974 140.57299 31971 ft 471 kts 283°
2026-04-26 13:44 14.91203 140.50656 31977 ft 470 kts 282°
2026-04-26 13:44 14.92448 140.44018 31974 ft 470 kts 283°
2026-04-26 13:45 14.93728 140.37388 31981 ft 470 kts 283°
2026-04-26 13:45 14.94965 140.30761 31983 ft 470 kts 282°
2026-04-26 13:46 14.96203 140.24173 31985 ft 470 kts 282°
2026-04-26 13:46 14.97462 140.17546 31978 ft 470 kts 282°
2026-04-26 13:47 14.98707 140.10913 31987 ft 470 kts 282°
2026-04-26 13:47 14.99953 140.04282 31985 ft 469 kts 282°
2026-04-26 13:48 15.01199 139.97646 31980 ft 470 kts 282°
2026-04-26 13:48 15.02443 139.91012 31987 ft 470 kts 282°
2026-04-26 13:49 15.03691 139.84382 31989 ft 469 kts 282°
2026-04-26 13:49 15.04716 139.78883 31986 ft 469 kts 281°
2026-04-26 13:50 15.05924 139.72249 31993 ft 469 kts 283°
2026-04-26 13:50 15.07164 139.65608 31983 ft 470 kts 280°
2026-04-26 13:51 15.08431 139.58986 32001 ft 469 kts 282°
2026-04-26 13:51 15.09572 139.52342 31997 ft 469 kts 283°
2026-04-26 13:52 15.10836 139.45718 31992 ft 469 kts 280°
2026-04-26 13:52 15.12118 139.39095 31989 ft 470 kts 281°
2026-04-26 13:53 15.13280 139.32446 32003 ft 469 kts 284°
2026-04-26 13:53 15.14455 139.25799 31997 ft 470 kts 279°
2026-04-26 13:54 15.15776 139.19168 31989 ft 471 kts 281°
2026-04-26 13:54 15.16940 139.12508 32005 ft 470 kts 284°
2026-04-26 13:55 15.18544 139.03600 32002 ft 471 kts 282°
2026-04-26 13:56 15.20576 138.92532 32009 ft 471 kts 284°
2026-04-26 13:56 15.21794 138.85861 31992 ft 472 kts 280°
2026-04-26 13:57 15.23092 138.79206 31999 ft 472 kts 280°
2026-04-26 13:57 15.24235 138.72520 32009 ft 472 kts 283°
2026-04-26 13:58 15.25418 138.65834 31999 ft 472 kts 280°
2026-04-26 13:58 15.26726 138.59169 32000 ft 472 kts 279°
2026-04-26 13:59 15.27853 138.52469 31999 ft 473 kts 282°
2026-04-26 13:59 15.29071 138.45787 32003 ft 472 kts 279°
2026-04-26 14:00 15.31465 138.32418 32004 ft 472 kts 280°
2026-04-26 14:01 15.32659 138.25729 32000 ft 472 kts 281°
2026-04-26 14:01 15.33876 138.19056 31999 ft 471 kts 280°
2026-04-26 14:02 15.35058 138.12378 32008 ft 471 kts 280°
2026-04-26 14:02 15.36260 138.05706 32005 ft 471 kts 280°
2026-04-26 14:03 15.37444 137.99028 32005 ft 471 kts 280°
2026-04-26 14:03 15.38633 137.92347 32003 ft 471 kts 280°
2026-04-26 14:04 15.39825 137.85669 32005 ft 472 kts 279°
2026-04-26 14:04 15.41006 137.79032 32011 ft 472 kts 279°
2026-04-26 14:05 15.42197 137.72349 32012 ft 472 kts 279°
2026-04-26 14:05 15.43397 137.65665 32011 ft 472 kts 279°
2026-04-26 14:06 15.44575 137.58979 32007 ft 472 kts 279°
2026-04-26 14:06 15.45742 137.52287 32003 ft 472 kts 279°
2026-04-26 14:07 15.46903 137.45595 32002 ft 472 kts 279°
2026-04-26 14:07 15.48086 137.38907 32006 ft 471 kts 279°
2026-04-26 14:08 15.49289 137.32223 32007 ft 472 kts 279°
2026-04-26 14:08 15.50450 137.25536 32007 ft 471 kts 278°
2026-04-26 14:09 15.51607 137.18848 32008 ft 471 kts 279°
2026-04-26 14:09 15.52781 137.12163 32009 ft 472 kts 279°
2026-04-26 14:10 15.53975 137.05475 32011 ft 472 kts 279°
2026-04-26 14:10 15.55123 136.98785 32004 ft 471 kts 278°
2026-04-26 14:11 15.56880 136.88753 31999 ft 471 kts 279°
2026-04-26 14:11 15.58042 136.82110 32004 ft 471 kts 278°
2026-04-26 14:12 15.59190 136.75417 32008 ft 471 kts 278°
2026-04-26 14:12 15.60358 136.68733 32006 ft 471 kts 279°
2026-04-26 14:13 15.62097 136.58702 32008 ft 471 kts 278°
2026-04-26 14:14 15.63259 136.52016 32003 ft 471 kts 278°
2026-04-26 14:14 15.64416 136.45325 32008 ft 471 kts 278°
2026-04-26 14:15 15.65569 136.38635 32007 ft 471 kts 278°
2026-04-26 14:15 15.66733 136.31944 32007 ft 471 kts 278°
2026-04-26 14:16 15.67876 136.25254 32009 ft 471 kts 278°
2026-04-26 14:16 15.69026 136.18571 32004 ft 471 kts 278°
2026-04-26 14:17 15.70179 136.11884 32009 ft 470 kts 278°
2026-04-26 14:17 15.71317 136.05205 32008 ft 470 kts 278°
2026-04-26 14:18 15.72466 135.98528 32010 ft 470 kts 278°
2026-04-26 14:18 15.73611 135.91851 32004 ft 470 kts 278°
2026-04-26 14:19 15.74741 135.85175 32009 ft 470 kts 278°
2026-04-26 14:19 15.75887 135.78501 32008 ft 469 kts 278°
2026-04-26 14:20 15.77030 135.71827 32008 ft 469 kts 278°
2026-04-26 14:20 15.78157 135.65153 32012 ft 469 kts 278°
2026-04-26 14:21 15.79292 135.58489 32007 ft 469 kts 278°
2026-04-26 14:21 15.80423 135.51825 32006 ft 469 kts 278°
2026-04-26 14:22 15.81555 135.45163 32007 ft 468 kts 278°
2026-04-26 14:22 15.82682 135.38504 32009 ft 468 kts 278°
2026-04-26 14:23 15.83798 135.31899 32007 ft 467 kts 278°
2026-04-26 14:23 15.84934 135.25207 32007 ft 467 kts 278°
2026-04-26 14:24 15.86066 135.18613 32009 ft 467 kts 278°
2026-04-26 14:24 15.87200 135.11977 32008 ft 467 kts 278°
2026-04-26 14:25 15.88335 135.05344 32010 ft 466 kts 278°
2026-04-26 14:25 15.89470 134.98717 32008 ft 466 kts 278°
2026-04-26 14:26 15.90604 134.92096 32008 ft 466 kts 278°
2026-04-26 14:26 15.91704 134.85467 32009 ft 465 kts 277°
2026-04-26 14:27 15.92816 134.78852 32009 ft 465 kts 278°
2026-04-26 14:27 15.93936 134.72239 32009 ft 464 kts 277°
2026-04-26 14:28 15.95008 134.65620 32009 ft 464 kts 277°
2026-04-26 14:28 15.96099 134.59006 32006 ft 464 kts 277°
2026-04-26 14:29 15.97208 134.52401 32007 ft 464 kts 277°
2026-04-26 14:29 15.98337 134.45797 32009 ft 464 kts 278°
2026-04-26 14:30 15.99465 134.39197 32010 ft 464 kts 277°
2026-04-26 14:30 16.00512 134.32590 32009 ft 463 kts 277°
2026-04-26 14:31 16.01571 134.25997 32010 ft 463 kts 277°
2026-04-26 14:31 16.02699 134.19407 32009 ft 462 kts 278°
2026-04-26 14:32 16.03819 134.12831 32006 ft 462 kts 277°
2026-04-26 14:32 16.04930 134.06257 32008 ft 462 kts 277°
2026-04-26 14:33 16.05984 133.99717 32008 ft 462 kts 277°
2026-04-26 14:33 16.07063 133.93142 32011 ft 461 kts 277°
2026-04-26 14:34 16.08169 133.86532 32011 ft 461 kts 277°
2026-04-26 14:34 16.09278 133.79955 32012 ft 462 kts 278°
2026-04-26 14:35 16.10364 133.73425 32012 ft 461 kts 277°
2026-04-26 14:35 16.11430 133.66843 32010 ft 461 kts 277°
2026-04-26 14:36 16.12515 133.60270 32013 ft 461 kts 278°
2026-04-26 14:36 16.13603 133.53699 32014 ft 461 kts 277°
2026-04-26 14:37 16.14510 133.48194 32010 ft 461 kts 277°
2026-04-26 14:37 16.15586 133.41627 32011 ft 460 kts 277°
2026-04-26 14:38 16.16642 133.35107 32010 ft 460 kts 277°
2026-04-26 14:38 16.17715 133.28551 32010 ft 460 kts 277°
2026-04-26 14:39 16.18782 133.21996 32010 ft 459 kts 277°
2026-04-26 14:39 16.19848 133.15444 32007 ft 459 kts 277°
2026-04-26 14:40 16.20890 133.08901 32009 ft 459 kts 277°
2026-04-26 14:40 16.21947 133.02362 32009 ft 458 kts 277°
2026-04-26 14:41 16.23016 132.95831 32004 ft 458 kts 277°
2026-04-26 14:41 16.24027 132.89290 32007 ft 458 kts 277°
2026-04-26 14:42 16.25052 132.82754 31996 ft 458 kts 277°
2026-04-26 14:42 16.26096 132.76221 31822 ft 457 kts 277°
2026-04-26 14:43 16.27156 132.69720 31626 ft 455 kts 277°
2026-04-26 14:43 16.28223 132.63249 31443 ft 453 kts 277°
2026-04-26 14:44 16.29282 132.56795 31256 ft 452 kts 277°
2026-04-26 14:44 16.30255 132.50349 31066 ft 450 kts 277°
2026-04-26 14:45 16.31240 132.43940 30996 ft 448 kts 277°
2026-04-26 14:45 16.32244 132.37535 30999 ft 448 kts 277°
2026-04-26 14:46 16.33308 132.31142 31002 ft 448 kts 277°
2026-04-26 14:46 16.34346 132.24789 31003 ft 448 kts 277°
2026-04-26 14:47 16.35366 132.18397 31004 ft 447 kts 276°
2026-04-26 14:47 16.36318 132.11999 31000 ft 447 kts 277°
2026-04-26 14:48 16.37288 132.05608 30998 ft 447 kts 277°
2026-04-26 14:48 16.38324 131.99234 30999 ft 446 kts 278°
2026-04-26 14:49 16.39343 131.92863 31002 ft 446 kts 277°
2026-04-26 14:49 16.40365 131.86494 31001 ft 445 kts 277°
2026-04-26 14:50 16.41383 131.80138 30997 ft 445 kts 277°
2026-04-26 14:50 16.42311 131.73772 30997 ft 444 kts 276°
2026-04-26 14:51 16.43250 131.67414 30996 ft 444 kts 277°
2026-04-26 14:51 16.44262 131.61010 31003 ft 452 kts 278°
2026-04-26 14:52 16.45289 131.54556 30998 ft 451 kts 277°
2026-04-26 14:52 16.46312 131.48108 30999 ft 451 kts 277°
2026-04-26 14:53 16.47305 131.41662 30997 ft 451 kts 276°
2026-04-26 14:53 16.48236 131.35207 30999 ft 450 kts 276°
2026-04-26 14:54 16.49185 131.28757 30993 ft 450 kts 277°
2026-04-26 14:54 16.50155 131.22308 30997 ft 450 kts 277°
2026-04-26 14:55 16.51143 131.15870 30996 ft 450 kts 277°
2026-04-26 14:55 16.52152 131.09428 30994 ft 450 kts 277°
2026-04-26 14:56 16.53173 131.03038 30992 ft 450 kts 277°
2026-04-26 14:56 16.54122 130.96596 30992 ft 450 kts 276°
2026-04-26 14:57 16.55089 130.90116 30993 ft 450 kts 277°
2026-04-26 14:57 16.56062 130.83724 30992 ft 449 kts 277°
2026-04-26 14:58 16.57001 130.77284 30989 ft 449 kts 276°
2026-04-26 14:58 16.57965 130.70852 30987 ft 449 kts 276°
2026-04-26 14:59 16.58905 130.64426 30989 ft 449 kts 276°
2026-04-26 14:59 16.59845 130.58000 30990 ft 448 kts 276°
2026-04-26 15:00 16.60805 130.51575 30989 ft 448 kts 276°
2026-04-26 15:00 16.61741 130.45149 30990 ft 448 kts 276°
2026-04-26 15:01 16.62668 130.38731 30981 ft 448 kts 276°
2026-04-26 15:01 16.63600 130.32315 30983 ft 447 kts 276°
2026-04-26 15:02 16.64536 130.25904 30987 ft 447 kts 276°
2026-04-26 15:02 16.65471 130.19490 30984 ft 447 kts 276°
2026-04-26 15:03 16.66391 130.13086 30984 ft 447 kts 276°
2026-04-26 15:03 16.67302 130.06681 30984 ft 446 kts 276°
2026-04-26 15:04 16.68230 130.00282 30984 ft 446 kts 276°
2026-04-26 15:04 16.69454 129.93939 30970 ft 445 kts 275°
2026-04-26 15:05 16.70155 129.87573 30981 ft 445 kts 275°
2026-04-26 15:05 16.70978 129.81175 30985 ft 445 kts 276°
2026-04-26 15:06 16.71873 129.74794 30985 ft 445 kts 276°
2026-04-26 15:06 16.72771 129.68417 30982 ft 444 kts 276°
2026-04-26 15:07 16.74120 129.58860 30982 ft 444 kts 276°
2026-04-26 15:07 16.75013 129.52490 30980 ft 444 kts 276°
2026-04-26 15:08 16.75908 129.46124 30976 ft 443 kts 276°
2026-04-26 15:08 16.76795 129.39761 30976 ft 443 kts 276°
2026-04-26 15:09 16.77676 129.33434 30979 ft 443 kts 276°
2026-04-26 15:09 16.78567 129.27032 30980 ft 443 kts 276°
2026-04-26 15:10 16.79311 129.21743 30981 ft 443 kts 276°
2026-04-26 15:10 16.80339 129.14308 30980 ft 443 kts 276°
2026-04-26 15:11 16.81217 129.07944 30976 ft 443 kts 276°
2026-04-26 15:11 16.82089 129.01586 30975 ft 442 kts 276°
2026-04-26 15:12 16.82958 128.95233 30975 ft 442 kts 276°
2026-04-26 15:12 16.83829 128.88879 30975 ft 442 kts 276°
2026-04-26 15:13 16.84700 128.82526 30972 ft 442 kts 276°
2026-04-26 15:13 16.85567 128.76177 30974 ft 442 kts 276°
2026-04-26 15:14 16.86432 128.69829 30975 ft 442 kts 276°
2026-04-26 15:14 16.87287 128.63479 30976 ft 441 kts 276°
2026-04-26 15:15 16.88151 128.57180 30973 ft 441 kts 276°
2026-04-26 15:15 16.89008 128.50833 30973 ft 441 kts 276°
2026-04-26 15:16 16.89863 128.44491 30975 ft 441 kts 276°
2026-04-26 15:16 16.90713 128.38146 30973 ft 441 kts 276°
2026-04-26 15:17 16.91412 128.32874 30975 ft 441 kts 276°
2026-04-26 15:17 16.92401 128.25469 30976 ft 440 kts 276°
2026-04-26 15:18 16.93254 128.19133 30972 ft 440 kts 276°
2026-04-26 15:18 16.94095 128.12804 30974 ft 440 kts 276°
2026-04-26 15:19 16.94931 128.06475 30973 ft 440 kts 276°
2026-04-26 15:19 16.95765 128.00146 30976 ft 440 kts 276°
2026-04-26 15:20 16.96594 127.93826 30975 ft 439 kts 276°
2026-04-26 15:20 16.97421 127.87504 30976 ft 439 kts 276°
2026-04-26 15:21 16.98250 127.81186 30975 ft 439 kts 276°
2026-04-26 15:21 16.99076 127.74865 30972 ft 439 kts 276°
2026-04-26 15:22 16.99896 127.68543 30974 ft 439 kts 276°
2026-04-26 15:22 17.00716 127.62219 30975 ft 439 kts 276°
2026-04-26 15:23 17.01521 127.55937 30970 ft 439 kts 276°
2026-04-26 15:23 17.02342 127.49614 30971 ft 439 kts 276°
2026-04-26 15:24 17.03169 127.43289 30972 ft 439 kts 276°
2026-04-26 15:24 17.03998 127.36963 30974 ft 440 kts 276°
2026-04-26 15:25 17.04696 127.31705 30971 ft 439 kts 276°
2026-04-26 15:25 17.05645 127.24307 30969 ft 439 kts 275°
2026-04-26 15:26 17.06293 127.18999 30968 ft 440 kts 275°
2026-04-26 15:26 17.07078 127.12708 30968 ft 439 kts 275°
2026-04-26 15:27 17.07888 127.06378 30966 ft 440 kts 276°
2026-04-26 15:27 17.08718 127.00046 30970 ft 440 kts 276°
2026-04-26 15:28 17.09490 126.93700 30967 ft 440 kts 275°
2026-04-26 15:28 17.10259 126.87360 30972 ft 440 kts 275°
2026-04-26 15:29 17.11049 126.81017 30969 ft 440 kts 275°
2026-04-26 15:30 17.12680 126.68332 30970 ft 440 kts 275°
2026-04-26 15:30 17.13451 126.61988 30968 ft 440 kts 275°
2026-04-26 15:31 17.14621 126.52468 30970 ft 440 kts 275°
2026-04-26 15:32 17.15664 126.44024 30967 ft 440 kts 275°
2026-04-26 15:32 17.16569 126.36606 30966 ft 440 kts 275°
2026-04-26 15:33 17.17341 126.30261 30969 ft 440 kts 275°
2026-04-26 15:33 17.18110 126.23918 30967 ft 440 kts 275°
2026-04-26 15:34 17.18880 126.17573 30967 ft 440 kts 275°
2026-04-26 15:34 17.19648 126.11229 30968 ft 440 kts 275°
2026-04-26 15:35 17.20416 126.04881 30964 ft 440 kts 275°
2026-04-26 15:35 17.20797 126.01713 31089 ft 438 kts 275°
2026-04-26 15:35 17.21181 125.98551 31274 ft 439 kts 275°
2026-04-26 15:36 17.21566 125.95425 31425 ft 441 kts 275°
2026-04-26 15:36 17.21963 125.92240 31567 ft 442 kts 275°
2026-04-26 15:36 17.22365 125.89049 31707 ft 443 kts 275°
2026-04-26 15:36 17.22768 125.85854 31860 ft 444 kts 274°
2026-04-26 15:37 17.23131 125.82649 31997 ft 444 kts 274°
2026-04-26 15:37 17.23506 125.79438 32144 ft 445 kts 274°
2026-04-26 15:37 17.23886 125.76226 32288 ft 446 kts 274°
2026-04-26 15:37 17.24267 125.73004 32433 ft 446 kts 274°
2026-04-26 15:38 17.24642 125.69775 32582 ft 447 kts 274°
2026-04-26 15:38 17.25017 125.66546 32730 ft 448 kts 274°
2026-04-26 15:38 17.25397 125.63309 32879 ft 449 kts 274°
2026-04-26 15:38 17.25778 125.60061 33030 ft 450 kts 274°
2026-04-26 15:39 17.26159 125.56815 33180 ft 451 kts 274°
2026-04-26 15:39 17.26547 125.53557 33333 ft 452 kts 274°
2026-04-26 15:39 17.26935 125.50296 33486 ft 453 kts 274°
2026-04-26 15:39 17.27194 125.48131 33589 ft 453 kts 274°
2026-04-26 15:40 17.27721 125.43751 33793 ft 454 kts 274°
2026-04-26 15:40 17.28120 125.40464 33950 ft 455 kts 274°
2026-04-26 15:40 17.28518 125.37174 34086 ft 456 kts 274°
2026-04-26 15:40 17.28913 125.33881 34221 ft 457 kts 274°
2026-04-26 15:41 17.29307 125.30579 34353 ft 458 kts 274°
2026-04-26 15:41 17.29697 125.27271 34488 ft 458 kts 274°
2026-04-26 15:41 17.30086 125.23957 34624 ft 459 kts 274°
2026-04-26 15:41 17.30472 125.20644 34760 ft 460 kts 274°
2026-04-26 15:42 17.30856 125.17320 34905 ft 460 kts 274°
2026-04-26 15:42 17.31240 125.13989 34948 ft 463 kts 274°
2026-04-26 15:42 17.32002 125.07305 34957 ft 450 kts 274°
2026-04-26 15:43 17.32373 125.04133 34949 ft 431 kts 274°
2026-04-26 15:43 17.32737 125.01033 34946 ft 429 kts 274°
2026-04-26 15:44 17.33823 124.91679 34947 ft 436 kts 274°
2026-04-26 15:44 17.34904 124.82245 34952 ft 435 kts 274°
2026-04-26 15:45 17.35977 124.72808 34952 ft 435 kts 274°
2026-04-26 15:46 17.37045 124.63373 34953 ft 435 kts 274°
2026-04-26 15:46 17.37619 124.58145 34953 ft 435 kts 274°
2026-04-26 15:47 17.38791 124.47650 34950 ft 435 kts 274°
2026-04-26 15:48 17.39863 124.41414 34964 ft 430 kts 279°
2026-04-26 15:48 17.41150 124.35332 34957 ft 428 kts 279°
2026-04-26 15:49 17.42455 124.29241 34955 ft 429 kts 279°
2026-04-26 15:49 17.43776 124.23149 34955 ft 429 kts 280°
2026-04-26 15:50 17.45110 124.17056 34957 ft 429 kts 280°
2026-04-26 15:50 17.46439 124.10958 34954 ft 429 kts 280°
2026-04-26 15:51 17.47762 124.04853 34958 ft 430 kts 280°
2026-04-26 15:51 17.49074 123.98751 34962 ft 430 kts 280°
2026-04-26 15:52 17.50385 123.92639 34960 ft 430 kts 280°
2026-04-26 15:52 17.51686 123.86525 34961 ft 430 kts 280°
2026-04-26 15:53 17.52988 123.80396 34964 ft 431 kts 280°
2026-04-26 15:53 17.54276 123.74307 34965 ft 431 kts 280°
2026-04-26 15:54 17.55566 123.68168 34960 ft 431 kts 280°
2026-04-26 15:54 17.56855 123.62031 34964 ft 431 kts 280°
2026-04-26 15:55 17.58141 123.55896 34963 ft 431 kts 280°
2026-04-26 15:55 17.59420 123.49765 34960 ft 430 kts 280°
2026-04-26 15:56 17.60703 123.43638 34962 ft 430 kts 280°
2026-04-26 15:56 17.61989 123.37520 34964 ft 430 kts 280°
2026-04-26 15:57 17.63277 123.31405 34962 ft 429 kts 280°
2026-04-26 15:57 17.64566 123.25298 34964 ft 429 kts 280°
2026-04-26 15:58 17.65861 123.19199 34962 ft 428 kts 280°
2026-04-26 15:58 17.67158 123.13115 34961 ft 428 kts 280°
2026-04-26 15:59 17.68409 123.07026 34966 ft 427 kts 279°
2026-04-26 15:59 17.69668 123.00945 34964 ft 426 kts 279°
2026-04-26 16:00 17.70928 122.94876 34963 ft 426 kts 279°
2026-04-26 16:00 17.72170 122.88807 34963 ft 425 kts 279°
2026-04-26 16:01 17.73422 122.82749 34961 ft 425 kts 279°
2026-04-26 16:01 17.74658 122.76698 34964 ft 424 kts 279°
2026-04-26 16:02 17.75541 122.70616 34963 ft 420 kts 270°
2026-04-26 16:02 17.75690 122.64482 34969 ft 421 kts 271°
2026-04-26 16:03 17.76254 122.58373 34965 ft 422 kts 275°
2026-04-26 16:03 17.77143 122.52318 34965 ft 423 kts 277°
2026-04-26 16:04 17.78194 122.46306 34967 ft 423 kts 278°
2026-04-26 16:04 17.79361 122.40246 34970 ft 423 kts 278°
2026-04-26 16:05 17.80546 122.34203 34975 ft 423 kts 278°
2026-04-26 16:05 17.81783 122.28168 34978 ft 423 kts 279°
2026-04-26 16:06 17.83029 122.22134 34978 ft 423 kts 279°
2026-04-26 16:06 17.84589 122.16175 34979 ft 422 kts 278°
2026-04-26 16:07 17.85659 122.10113 34974 ft 422 kts 277°
2026-04-26 16:07 17.86807 122.04065 34983 ft 422 kts 278°
2026-04-26 16:08 17.87997 121.98025 34976 ft 423 kts 278°
2026-04-26 16:08 17.89200 121.91994 34980 ft 422 kts 278°
2026-04-26 16:09 17.90423 121.85958 34975 ft 422 kts 279°
2026-04-26 16:09 17.91652 121.79962 34971 ft 423 kts 279°
2026-04-26 16:10 17.92896 121.73932 34969 ft 422 kts 279°
2026-04-26 16:10 17.94134 121.67909 34970 ft 422 kts 279°
2026-04-26 16:11 17.95375 121.61882 34970 ft 422 kts 279°
2026-04-26 16:11 17.96615 121.55860 34969 ft 422 kts 279°
2026-04-26 16:12 17.97823 121.49873 34975 ft 422 kts 278°
2026-04-26 16:12 17.99628 121.40823 34984 ft 422 kts 278°
2026-04-26 16:13 18.00837 121.34800 34987 ft 422 kts 279°
2026-04-26 16:13 18.02057 121.28762 34992 ft 422 kts 279°
2026-04-26 16:14 18.03271 121.22725 34997 ft 422 kts 279°
2026-04-26 16:15 18.04890 121.14660 35001 ft 421 kts 279°
2026-04-26 16:15 18.06089 121.08634 34998 ft 421 kts 278°
2026-04-26 16:16 18.07856 120.99663 35000 ft 421 kts 279°
2026-04-26 16:16 18.09044 120.93692 34989 ft 419 kts 278°
2026-04-26 16:17 18.10197 120.87845 34981 ft 421 kts 279°
2026-04-26 16:17 18.11394 120.81823 34960 ft 421 kts 279°
2026-04-26 16:18 18.13198 120.72799 34951 ft 420 kts 279°
2026-04-26 16:19 18.14964 120.63823 34943 ft 420 kts 279°
2026-04-26 16:20 18.16738 120.54806 34940 ft 420 kts 279°
2026-04-26 16:20 18.18481 120.48977 34939 ft 425 kts 290°
2026-04-26 16:20 18.19813 120.46191 34946 ft 427 kts 294°
2026-04-26 16:21 18.22832 120.40795 34946 ft 429 kts 299°
2026-04-26 16:21 18.25688 120.35330 34942 ft 425 kts 292°
2026-04-26 16:22 18.28285 120.29734 34939 ft 425 kts 292°
2026-04-26 16:22 18.30913 120.24161 34932 ft 425 kts 292°
2026-04-26 16:23 18.33553 120.18600 34926 ft 425 kts 292°
2026-04-26 16:23 18.36242 120.13067 34928 ft 424 kts 293°
2026-04-26 16:24 18.38926 120.07530 34928 ft 424 kts 293°
2026-04-26 16:24 18.41788 120.02094 34926 ft 427 kts 298°
2026-04-26 16:25 18.44511 119.96603 34931 ft 423 kts 292°
2026-04-26 16:25 18.47064 119.91067 34929 ft 422 kts 292°
2026-04-26 16:26 18.49673 119.85526 34933 ft 422 kts 292°
2026-04-26 16:26 18.52295 119.80002 34932 ft 422 kts 292°
2026-04-26 16:27 18.54933 119.74481 34929 ft 421 kts 292°
2026-04-26 16:27 18.57583 119.68978 34931 ft 421 kts 293°
2026-04-26 16:28 18.60248 119.63483 34934 ft 421 kts 293°
2026-04-26 16:28 18.62896 119.58061 34936 ft 421 kts 293°
2026-04-26 16:29 18.65506 119.52608 34936 ft 420 kts 292°
2026-04-26 16:29 18.68130 119.47101 34935 ft 420 kts 292°
2026-04-26 16:30 18.70764 119.41614 34944 ft 419 kts 292°
2026-04-26 16:30 18.73375 119.36114 34948 ft 419 kts 292°
2026-04-26 16:31 18.75995 119.30622 34938 ft 419 kts 292°
2026-04-26 16:31 18.78611 119.25130 34948 ft 419 kts 292°
2026-04-26 16:32 18.80775 119.20566 34941 ft 418 kts 292°
2026-04-26 16:32 18.83821 119.14149 34946 ft 418 kts 292°
2026-04-26 16:33 18.86410 119.08697 34958 ft 418 kts 292°
2026-04-26 16:33 18.89013 119.03210 34948 ft 418 kts 292°
2026-04-26 16:34 18.91615 118.97727 34942 ft 418 kts 292°
2026-04-26 16:34 18.94227 118.92248 34957 ft 418 kts 292°
2026-04-26 16:35 18.96839 118.86768 34952 ft 418 kts 292°
2026-04-26 16:35 18.99462 118.81293 34949 ft 417 kts 292°
2026-04-26 16:36 19.02084 118.75824 34950 ft 417 kts 292°
2026-04-26 16:36 19.04704 118.70350 34956 ft 417 kts 291°
2026-04-26 16:37 19.07263 118.64857 34952 ft 417 kts 291°
2026-04-26 16:37 19.09393 118.60290 34955 ft 417 kts 291°
2026-04-26 16:38 19.12407 118.53873 34957 ft 416 kts 291°
2026-04-26 16:38 19.14999 118.48401 34957 ft 416 kts 292°
2026-04-26 16:39 19.17570 118.42916 34960 ft 416 kts 291°
2026-04-26 16:39 19.20124 118.37430 34961 ft 416 kts 291°
2026-04-26 16:40 19.22694 118.31954 34957 ft 415 kts 291°
2026-04-26 16:40 19.25273 118.26488 34960 ft 415 kts 291°
2026-04-26 16:41 19.27497 118.21670 34958 ft 415 kts 291°
2026-04-26 16:41 19.30050 118.16199 34963 ft 414 kts 291°
2026-04-26 16:42 19.32603 118.10733 34962 ft 414 kts 291°
2026-04-26 16:42 19.35112 118.05289 34961 ft 417 kts 293°
2026-04-26 16:43 19.37692 117.99709 34959 ft 424 kts 294°
2026-04-26 16:43 19.40303 117.94128 34958 ft 423 kts 294°
2026-04-26 16:44 19.42902 117.88538 34963 ft 423 kts 293°
2026-04-26 16:44 19.45473 117.82940 34962 ft 423 kts 294°
2026-04-26 16:45 19.48063 117.77341 34961 ft 423 kts 294°
2026-04-26 16:45 19.50666 117.71755 34964 ft 423 kts 294°
2026-04-26 16:46 19.53283 117.66162 34964 ft 424 kts 294°
2026-04-26 16:46 19.55878 117.60556 34965 ft 424 kts 294°
2026-04-26 16:47 19.58475 117.54948 34963 ft 424 kts 294°
2026-04-26 16:47 19.61060 117.49332 34963 ft 424 kts 294°
2026-04-26 16:48 19.63641 117.43714 34968 ft 424 kts 294°
2026-04-26 16:48 19.66215 117.38084 34964 ft 424 kts 294°
2026-04-26 16:49 19.68765 117.32492 34966 ft 424 kts 294°
2026-04-26 16:49 19.71327 117.26860 34967 ft 424 kts 294°
2026-04-26 16:50 19.73908 117.21233 34970 ft 424 kts 294°
2026-04-26 16:50 19.76489 117.15607 34971 ft 424 kts 294°
2026-04-26 16:51 19.79060 117.09979 34969 ft 424 kts 295°
2026-04-26 16:51 19.81644 117.04358 34970 ft 424 kts 294°
2026-04-26 16:52 19.83763 116.99669 34972 ft 424 kts 294°
2026-04-26 16:52 19.86762 116.93085 34968 ft 424 kts 295°
2026-04-26 16:53 19.89343 116.87463 34973 ft 423 kts 295°
2026-04-26 16:53 19.91894 116.81820 34973 ft 423 kts 294°
2026-04-26 16:54 19.94445 116.76183 34976 ft 424 kts 295°
2026-04-26 16:54 19.97016 116.70547 34973 ft 423 kts 295°
2026-04-26 16:55 19.99869 116.65074 34971 ft 426 kts 304°
2026-04-26 16:55 20.03863 116.60405 34978 ft 430 kts 316°
2026-04-26 16:56 20.10007 116.53554 34976 ft 428 kts 309°
2026-04-26 16:57 20.13989 116.48834 34979 ft 429 kts 309°
2026-04-26 16:57 20.20000 116.41777 34977 ft 429 kts 309°
2026-04-26 16:58 20.22799 116.38737 34976 ft 432 kts 316°
2026-04-26 16:59 20.31488 116.31471 34982 ft 434 kts 319°
2026-04-26 16:59 20.36039 116.27226 34975 ft 430 kts 308°
2026-04-26 17:00 20.39560 116.22114 34981 ft 428 kts 302°
2026-04-26 17:00 20.44597 116.14309 34979 ft 428 kts 303°
2026-04-26 17:01 20.48132 116.09193 34980 ft 429 kts 304°
2026-04-26 17:01 20.51882 116.04235 34985 ft 430 kts 308°
2026-04-26 17:02 20.55899 115.99497 34979 ft 431 kts 310°
2026-04-26 17:02 20.59984 115.94806 34979 ft 431 kts 310°
2026-04-26 17:03 20.64038 115.90089 34982 ft 431 kts 309°
2026-04-26 17:03 20.67389 115.86154 34984 ft 431 kts 309°
2026-04-26 17:04 20.71423 115.81413 34979 ft 431 kts 309°
2026-04-26 17:04 20.75457 115.76676 34981 ft 431 kts 309°
2026-04-26 17:05 20.79492 115.71940 34983 ft 431 kts 309°
2026-04-26 17:05 20.83525 115.67202 34974 ft 431 kts 309°
2026-04-26 17:06 20.87556 115.62464 34978 ft 431 kts 309°
2026-04-26 17:06 20.91584 115.57727 34979 ft 431 kts 309°
2026-04-26 17:07 20.95614 115.52985 34977 ft 430 kts 309°
2026-04-26 17:07 20.99638 115.48247 34985 ft 430 kts 309°
2026-04-26 17:08 21.03664 115.43506 34932 ft 431 kts 309°
2026-04-26 17:08 21.05685 115.41123 34557 ft 432 kts 309°
2026-04-26 17:08 21.07706 115.38741 34122 ft 435 kts 310°
2026-04-26 17:09 21.09710 115.36378 33631 ft 433 kts 310°
2026-04-26 17:09 21.11079 115.34765 33271 ft 431 kts 310°
2026-04-26 17:09 21.13785 115.31573 32562 ft 435 kts 310°
2026-04-26 17:09 21.15817 115.29177 32036 ft 432 kts 310°
2026-04-26 17:10 21.17829 115.26803 31500 ft 429 kts 310°
2026-04-26 17:10 21.19832 115.24440 30963 ft 427 kts 310°
2026-04-26 17:10 21.21821 115.22093 30419 ft 425 kts 310°
2026-04-26 17:10 21.23805 115.19749 29846 ft 423 kts 310°
2026-04-26 17:11 21.25811 115.17375 29237 ft 441 kts 310°
2026-04-26 17:11 21.27882 115.14923 28701 ft 442 kts 310°
2026-04-26 17:11 21.29908 115.12531 28255 ft 436 kts 310°
2026-04-26 17:11 21.31941 115.10132 27844 ft 433 kts 310°
2026-04-26 17:12 21.35963 115.05378 27051 ft 428 kts 310°
2026-04-26 17:12 21.37959 115.03016 26660 ft 426 kts 310°
2026-04-26 17:13 21.41916 114.98331 25897 ft 422 kts 310°
2026-04-26 17:13 21.43900 114.96013 25529 ft 420 kts 312°
2026-04-26 17:13 21.48186 114.91758 24802 ft 419 kts 316°
2026-04-26 17:14 21.50362 114.89688 24441 ft 417 kts 316°
2026-04-26 17:14 21.54603 114.85495 23729 ft 412 kts 314°
2026-04-26 17:14 21.56663 114.83367 23324 ft 410 kts 313°
2026-04-26 17:15 21.60552 114.78954 22434 ft 403 kts 309°
2026-04-26 17:15 21.62396 114.76695 22008 ft 401 kts 308°
2026-04-26 17:15 21.64209 114.74431 21589 ft 398 kts 308°
2026-04-26 17:16 21.66006 114.72180 21176 ft 396 kts 308°
2026-04-26 17:16 21.67801 114.69945 20764 ft 393 kts 308°
2026-04-26 17:16 21.69590 114.67730 20361 ft 391 kts 309°
2026-04-26 17:16 21.71373 114.65531 19964 ft 389 kts 309°
2026-04-26 17:17 21.73149 114.63345 19567 ft 387 kts 309°
2026-04-26 17:17 21.74914 114.61174 19176 ft 385 kts 309°
2026-04-26 17:17 21.76671 114.59012 18791 ft 382 kts 309°
2026-04-26 17:17 21.78416 114.56862 18412 ft 380 kts 309°
2026-04-26 17:18 21.80149 114.54727 17997 ft 376 kts 309°
2026-04-26 17:18 21.81832 114.52653 17575 ft 361 kts 309°
2026-04-26 17:18 21.83454 114.50654 17134 ft 348 kts 309°
2026-04-26 17:18 21.85022 114.48721 16703 ft 338 kts 309°
2026-04-26 17:19 21.88033 114.45001 15861 ft 322 kts 309°
2026-04-26 17:19 21.89495 114.43192 15452 ft 319 kts 309°
2026-04-26 17:19 21.90901 114.41454 15050 ft 317 kts 309°
2026-04-26 17:20 21.92326 114.39691 14589 ft 318 kts 309°
2026-04-26 17:20 21.93312 114.38472 14177 ft 320 kts 309°
2026-04-26 17:20 21.95276 114.36044 13311 ft 322 kts 309°
2026-04-26 17:20 21.96731 114.34245 12648 ft 323 kts 309°
2026-04-26 17:21 21.98212 114.32415 11989 ft 324 kts 310°
2026-04-26 17:21 21.99715 114.30559 11331 ft 324 kts 310°
2026-04-26 17:21 22.01191 114.28734 10700 ft 322 kts 310°
2026-04-26 17:21 22.02647 114.26935 10215 ft 315 kts 310°
2026-04-26 17:22 22.04076 114.25167 9721 ft 310 kts 310°
2026-04-26 17:22 22.05482 114.23429 9189 ft 306 kts 310°
2026-04-26 17:22 22.06855 114.21740 8674 ft 301 kts 310°
2026-04-26 17:22 22.08227 114.20060 8161 ft 298 kts 310°
2026-04-26 17:23 22.09571 114.18423 8000 ft 284 kts 310°
2026-04-26 17:23 22.10872 114.16848 7992 ft 280 kts 311°
2026-04-26 17:23 22.12150 114.15308 7988 ft 268 kts 311°
2026-04-26 17:23 22.13384 114.13829 7990 ft 264 kts 311°
2026-04-26 17:24 22.14614 114.12361 7991 ft 264 kts 311°
2026-04-26 17:24 22.15850 114.10891 7992 ft 265 kts 311°
2026-04-26 17:24 22.17090 114.09424 7990 ft 265 kts 311°
2026-04-26 17:24 22.18333 114.07958 7991 ft 265 kts 311°
2026-04-26 17:25 22.19569 114.06508 7991 ft 256 kts 311°
2026-04-26 17:25 22.20570 114.05007 7975 ft 241 kts 288°
2026-04-26 17:25 22.20832 114.03250 8004 ft 237 kts 271°
2026-04-26 17:25 22.20828 114.01427 7593 ft 247 kts 269°
2026-04-26 17:26 22.20806 113.99556 7114 ft 252 kts 269°
2026-04-26 17:26 22.20834 113.97656 6628 ft 255 kts 275°
2026-04-26 17:26 22.20990 113.95755 6142 ft 254 kts 273°
2026-04-26 17:26 22.21067 113.93909 6008 ft 235 kts 272°
2026-04-26 17:27 22.21122 113.92182 5997 ft 227 kts 271°
2026-04-26 17:27 22.21141 113.90476 6002 ft 228 kts 270°
2026-04-26 17:27 22.21159 113.88764 5993 ft 228 kts 275°
2026-04-26 17:27 22.21751 113.87194 5984 ft 232 kts 311°
2026-04-26 17:28 22.23132 113.86282 5563 ft 239 kts 348°
2026-04-26 17:28 22.24757 113.86475 5122 ft 239 kts 26°
2026-04-26 17:28 22.26108 113.87508 4707 ft 238 kts 41°
2026-04-26 17:28 22.27320 113.88682 4506 ft 226 kts 41°
2026-04-26 17:29 22.28437 113.89755 4499 ft 204 kts 42°
2026-04-26 17:29 22.29128 113.90422 4487 ft 200 kts 42°
2026-04-26 17:29 22.30476 113.91725 4489 ft 185 kts 42°
2026-04-26 17:29 22.31354 113.92710 4478 ft 184 kts 60°
2026-04-26 17:30 22.31748 113.94036 4396 ft 186 kts 86°
2026-04-26 17:30 22.31756 113.95437 4162 ft 186 kts 91°
2026-04-26 17:30 22.31807 113.96829 3909 ft 185 kts 86°
2026-04-26 17:30 22.31920 113.98203 3665 ft 183 kts 86°
2026-04-26 17:31 22.32004 113.99553 3422 ft 182 kts 88°
2026-04-26 17:31 22.32092 114.00916 3199 ft 181 kts 86°
2026-04-26 17:31 22.32184 114.02272 2913 ft 182 kts 88°
2026-04-26 17:31 22.32256 114.03613 2693 ft 176 kts 87°
2026-04-26 17:32 22.32356 114.04896 2451 ft 162 kts 86°
2026-04-26 17:32 22.32422 114.06040 2244 ft 145 kts 88°
2026-04-26 17:32 22.32497 114.07091 2057 ft 138 kts 87°
2026-04-26 17:32 22.32555 114.08129 1872 ft 139 kts 89°
2026-04-26 17:33 22.32631 114.09164 1692 ft 138 kts 86°
2026-04-26 17:33 22.32690 114.10206 1502 ft 137 kts 88°
2026-04-26 17:33 22.32761 114.11247 1304 ft 140 kts 86°
2026-04-26 17:34 22.32895 114.13302 985 ft 132 kts 86°
2026-04-26 17:34 22.32963 114.14239 1014 ft 120 kts 86°
2026-04-26 17:34 22.33028 114.15114 1004 ft 115 kts 86°
2026-04-26 17:34 22.33126 114.15946 849 ft 120 kts 84°
2026-04-26 17:35 22.33183 114.16866 646 ft 126 kts 88°
2026-04-26 17:35 22.33174 114.17823 426 ft 125 kts 98°
2026-04-26 17:35 22.32892 114.18676 295 ft 121 kts 119°
2026-04-26 17:35 22.32445 114.19326 134 ft 121 kts 131°
2026-04-26 17:36 22.31888 114.19972 42 ft 113 kts 134°
2026-04-26 17:36 22.31379 114.20542 42 ft 102 kts 128°
2026-04-26 17:36 22.30987 114.20982 42 ft 46 kts 133°
2026-04-26 17:36 22.30866 114.21135 42 ft 29 kts 126°
2026-04-26 17:37 22.30833 114.21254 42 ft 17 kts 54°
2026-04-26 17:37 22.30931 114.21211 39 ft 23 kts 304°
2026-04-26 17:37 22.31087 114.21019 42 ft 45 kts 315°
2026-04-26 17:38 22.31347 114.20730 42 ft 37 kts 314°
2026-04-26 17:38 22.31588 114.20483 42 ft 56 kts 314°
2026-04-26 17:38 22.31845 114.20174 42 ft 33 kts 314°
2026-04-26 17:38 22.31948 114.20060 41 ft 30 kts 314°
2026-04-26 17:39 22.32073 114.19934 42 ft 16 kts 339°
2026-04-26 17:39 22.32261 114.19919 42 ft 39 kts 13°
2026-04-26 17:39 22.32434 114.19977 42 ft 17 kts 18°
2026-04-26 17:39 22.32554 114.20020 42 ft 12 kts 18°
2026-04-26 17:40 22.32629 114.20047 42 ft 13 kts 18°
2026-04-26 17:40 22.32657 114.20057 42 ft 13 kts 18°
2026-04-26 17:40 22.32837 114.20201 42 ft 0 kts 45°
2026-04-26 17:41 22.32861 114.20227 42 ft 12 kts 45°
2026-04-26 17:41 22.32952 114.20325 42 ft 26 kts 44°
2026-04-26 17:41 22.33048 114.20347 42 ft 18 kts 353°
2026-04-26 17:42 22.33116 114.20357 42 ft 12 kts 63°
2026-04-26 17:42 22.33125 114.20412 42 ft 0 kts 83°